Location: Shepherdstown, WV
(39.4326°N, 77.8042°W)
Time: 19:47:44
(UTC-04:00)

Vanguard 3 - Pass Details

Date: 31 July 2021
Orbit: 510 x 3260 km, 33.3° (Epoch: 18 September)

Event Time Altitude Azimuth Distance (km) Brightness Sun altitude
Rises 01:01:41 0° 282° (WNW) 7,163 12.2 -32.2°
Reaches altitude 10° 01:06:50 10° 277° (W) 6,199 11.7 -32.3°
Maximum altitude 01:24:22 42° 216° (SW) 3,729 10.0 -32.3°
Enters shadow 01:24:42 42° 214° (SSW) 3,714 10.0 -32.3°
